SL-12 DEB, 44588

Orbit data source: Space-Track

SL-12 DEB, 44588 is space debris in HEO originally from a launch on Thu, 20 May 1999 UTC launched from the Tyuratam Missile And Space Complex (TTMTR). Debris objects in space refer to the collection of defunct objects orbiting the Earth. Examples of debris include non-operational satellites, rocket bodies, and fragments generated from explosions, collisions, or faulty payload assembly.

Loading next visibility...
Identifier
44588, 1999-027E
Orbit
HEO
Country
Flag of CISCIS
Related business
Manufacturer
Unknown
Mission
Spacecraft
Bus & Motor
Unknown
Mass
Unknown
Launch date (UTC)
1999-05-20 (27 years ago)
Launch vehicle
Unknown
Launch site
Tyuratam Missile And Space Complex (TTMTR)
Object type
Payload
Rocket body
Debris
Shape & HBR
Unknown shape, 1.1 m
Radar Cross Section
Medium (>0.1 m² and <1 m²)

Expand to show TLE details & history
Last TLE update: 6 days ago

TLE from 6 days ago
0 SL-12 DEB
1 44588U 99027E   26167.55710420 -.00000102  00000-0  00000-0 0  9996
2 44588   7.2972 120.0233 3136633 164.2247  46.5502  1.46010867 67042
Epoch: 2026-06-16T13:22Z
TLE epoch observation values (Epoch: 2026-06-16T13:22:13.802Z)
Latitude
-6.58769°
Longitude
-101.11278°
Altitude
21,710.028 km
Speed
4.03 km/s
True Right ascension
00h 17m 05s
True Declination
-6° 34' 40"
Sunlit
Object was in daylight at epoch
Visualization orbit readout
Latitude
Unknown
Longitude
Unknown
Altitude
Unknown
Speed
Unknown
Apparent Right ascension
Unknown
Apparent Declination
Unknown
Sunlit
N/A
Visualization observer readout
Local Sidereal Time
21:26:10
Azimuth
Unknown
Elevation
Unknown
Doppler factor
Unknown
Orbital elements
Apogee altitude
36,738.971 km
Perigee altitude
16,148.833 km
Semi-major axis
32,822.039 km
Eccentricity
0.31366
Inclination
7.2972°
RAAN
120.0233°
Arg. of periapsis
164.2247°
True anomaly
80.01664°
Mean anomaly
46.5502°
Eccentric anomaly
62.4897°
Mean motion
0.365 °/min
Orbital period
986.3 mins
BSTAR
0
Loading maneuver chart data...
Computing Atmospheric mass density...
Loading historical data...
Loading historical data...
Loading historical data...
Loading historical data...
Loading historical data...
Loading historical data...
Loading historical data...
Other satellites on launch #27 in the year 1999 (1999-05-20 UTC)

Documentation

Showing up to 5 results
|